EW6304 Weather Reports


Display with metric or nautical units.
time (UTC)temp
F
wind
direction
speed
MPH
gust
MPH
rain 1hr
in
rain 24hr
in
rain mn
in
humidity
%
barometer
mb
20260903192821 75 88 2.0 4.0 0.00 0.19 0.19 87 1011.5
20260903192322 75 85 1.0 4.0 0.00 0.19 0.19 87 1011.6
20260903191823 75 69 1.0 3.0 0.00 0.19 0.19 86 1011.6
20260903191321 76 269 0.0 2.0 0.00 0.19 0.19 87 1011.6
20260903190819 76 269 1.0 3.0 0.00 0.19 0.19 86 1011.6
20260903190319 76 266 1.0 3.0 0.00 0.19 0.19 86 1011.7
20260903185821 76 289 1.0 4.0 0.00 0.19 0.19 86 1011.8
20260903185320 76 116 2.0 6.0 0.00 0.19 0.19 86 1011.7
20260903184819 76 102 2.0 6.0 0.00 0.19 0.19 85 1011.8
20260903184319 76 48 1.0 4.0 0.00 0.19 0.19 85 1011.9
20260903183819 77 37 1.0 4.0 0.00 0.19 0.19 85 1011.9
20260903183317 77 60 1.0 3.0 0.00 0.19 0.19 85 1011.9
20260903182818 77 69 1.0 4.0 0.00 0.19 0.19 86 1012.0
20260903182318 77 273 1.0 4.0 0.00 0.19 0.19 85 1012.1
20260903181816 77 288 1.0 3.0 0.00 0.19 0.19 86 1012.1
20260903181316 77 285 1.0 3.0 0.00 0.19 0.19 86 1012.1
20260903180819 78 287 0.0 2.0 0.00 0.19 0.19 85 1012.0
20260903180814 77 286 1.0 3.0 0.00 0.19 0.19 86 1012.0
20260903180314 77 287 0.0 3.0 0.00 0.19 0.19 85 1012.0
20260903175313 78 287 0.0 2.0 0.00 0.19 0.19 86 1012.0
20260903174809 77 287 0.0 2.0 0.00 0.19 0.19 87 1011.9
20260903174310 77 287 0.0 2.0 0.00 0.19 0.19 88 1012.0
20260903173808 77 287 0.0 1.0 0.00 0.19 0.19 87 1012.0
20260903173314 77 287 0.0 1.0 0.00 0.19 0.19 87 1012.2
20260903173310 77 287 0.0 1.0 0.00 0.19 0.19 87 1012.2
20260903172310 77 287 1.0 3.0 0.00 0.19 0.19 87 1012.3
20260903171809 77 287 1.0 3.0 0.00 0.19 0.19 87 1012.3
20260903171310 77 304 1.0 3.0 0.00 0.19 0.19 88 1012.2
20260903170808 77 316 1.0 3.0 0.00 0.19 0.19 89 1012.1
20260903170310 76 315 1.0 3.0 0.00 0.19 0.19 90 1012.0
20260903165809 76 314 1.0 3.0 0.00 0.19 0.19 90 1012.0
20260903165314 75 314 0.0 2.0 0.00 0.19 0.19 90 1012.0
20260903165309 75 316 1.0 3.0 0.00 0.19 0.19 90 1012.0
20260903164310 75 313 0.0 2.0 0.00 0.19 0.19 91 1012.0
20260903163809 75 313 0.0 2.0 0.00 0.19 0.19 91 1011.9
20260903163311 75 313 0.0 2.0 0.00 0.19 0.19 91 1011.8
20260903162810 75 315 1.0 4.0 0.00 0.19 0.19 90 1011.8
20260903162309 75 315 2.0 4.0 0.00 0.19 0.19 91 1011.8
20260903161811 74 306 2.0 4.0 0.00 0.19 0.19 93 1011.9
20260903161313 73 288 1.0 3.0 0.00 0.19 0.19 95 1012.1
20260903161309 73 311 1.0 4.0 0.00 0.19 0.19 94 1012.0
20260903160309 73 296 1.0 2.0 0.00 0.19 0.19 96 1012.1
20260903155808 73 296 1.0 3.0 0.00 0.19 0.19 96 1012.2
20260903155309 73 296 2.0 4.0 0.00 0.19 0.19 96 1012.4
20260903154808 73 315 2.0 4.0 0.00 0.19 0.19 96 1012.4
20260903154308 72 317 1.0 4.0 0.00 0.19 0.19 96 1012.6
20260903153810 73 344 1.0 3.0 0.00 0.19 0.19 97 1012.6
20260903153309 73 46 1.0 2.0 0.00 0.19 0.19 97 1012.7
20260903152810 73 118 1.0 4.0 0.00 0.19 0.19 97 1012.7
20260903152308 73 298 1.0 4.0 0.00 0.19 0.19 97 1012.7
20260903151809 72 327 1.0 4.0 0.00 0.19 0.19 97 1012.7
20260903151306 72 303 1.0 4.0 0.00 0.19 0.19 97 1012.7
20260903150808 72 304 1.0 4.0 0.00 0.19 0.19 97 1012.8
20260903150306 72 312 0.0 1.0 0.00 0.19 0.19 97 1013.0
20260903145807 72 311 0.0 1.0 0.00 0.19 0.19 97 1013.0
20260903145309 72 311 0.0 3.0 0.00 0.19 0.19 97 1013.0
20260903145306 72 311 0.0 3.0 0.00 0.19 0.19 97 1013.1
20260903144304 72 316 1.0 2.0 0.00 0.19 0.19 98 1013.1
20260903143805 72 315 0.0 2.0 0.00 0.19 0.19 98 1013.2
20260903143311 71 315 0.0 2.0 0.00 0.19 0.19 97 1013.3
20260903143307 71 315 0.0 2.0 0.00 0.19 0.19 97 1013.2
20260903142306 71 315 0.0 1.0 0.00 0.19 0.19 97 1013.4
20260903141804 71 315 0.0 1.0 0.00 0.19 0.19 97 1013.4
20260903141306 71 315 0.0 1.0 0.00 0.19 0.19 97 1013.7
20260903140804 70 315 0.0 1.0 0.00 0.19 0.19 97 1013.7
20260903140302 70 315 0.0 1.0 0.00 0.19 0.19 97 1013.9
20260903135803 70 315 0.0 2.0 0.00 0.19 0.19 97 1013.8
20260903135306 70 315 0.0 2.0 0.00 0.19 0.19 97 1013.9
20260903134803 70 314 0.0 2.0 0.00 0.19 0.19 97 1013.7
20260903134307 69 315 0.0 2.0 0.00 0.19 0.19 97 1013.7
20260903134303 70 315 0.0 2.0 0.00 0.19 0.19 97 1013.6
20260903133920 69 315 0.0 2.0 0.00 0.19 0.19 97 1013.6
20260903132807 69 315 0.0 2.0 0.01 0.19 0.19 97 1013.6
20260903132802 69 315 0.0 2.0 0.00 0.19 0.19 97 1013.5
20260903131803 69 315 0.0 2.0 0.01 0.19 0.19 97 1013.7
20260903131259 69 315 0.0 2.0 0.01 0.19 0.19 97 1013.7
20260903130801 68 316 1.0 3.0 0.01 0.19 0.19 97 1013.9
20260903130302 68 315 1.0 3.0 0.01 0.19 0.19 97 1013.8
20260903125801 68 316 1.0 2.0 0.01 0.19 0.19 97 1013.8
20260903125305 68 315 1.0 3.0 0.01 0.19 0.19 97 1013.8
20260903124801 68 315 1.0 3.0 0.01 0.19 0.19 97 1013.7
20260903124300 68 65 0.0 2.0 0.01 0.19 0.19 97 1013.7
20260903123802 68 65 0.0 2.0 0.01 0.19 0.19 97 1013.8
20260903123302 68 65 0.0 2.0 0.01 0.19 0.19 97 1013.9
20260903122801 68 69 0.0 2.0 0.02 0.19 0.19 97 1013.8
20260903122305 67 69 1.0 2.0 0.01 0.18 0.18 97 1013.9
20260903121805 67 69 1.0 2.0 0.04 0.18 0.18 97 1014.1
20260903121800 67 67 1.0 2.0 0.02 0.18 0.18 97 1014.0
20260903120802 67 311 1.0 3.0 0.05 0.18 0.18 97 1014.1
20260903120259 67 310 1.0 3.0 0.05 0.18 0.18 97 1014.4
20260903115803 67 355 1.0 5.0 0.05 0.18 0.18 96 1014.3
20260903115758 67 355 1.0 3.0 0.05 0.18 0.18 96 1014.3
20260903114757 67 339 1.0 5.0 0.05 0.18 0.18 96 1014.3
20260903114304 67 78 1.0 3.0 0.05 0.18 0.18 96 1014.3
20260903114259 67 52 1.0 3.0 0.05 0.18 0.18 96 1014.3
20260903113258 66 78 1.0 2.0 0.05 0.18 0.18 96 1014.3
20260903112758 66 57 1.0 4.0 0.04 0.17 0.18 96 1014.3
20260903112305 66 56 1.0 4.0 0.04 0.17 0.17 96 1014.3
20260903111757 66 76 1.0 3.0 0.03 0.16 0.16 96 1014.4
20260903111259 66 76 1.0 3.0 0.01 0.14 0.14 96 1014.4
20260903110758 66 74 1.0 3.0 0.02 0.13 0.13 96 1014.4
20260903110305 66 85 1.0 2.0 0.04 0.13 0.13 96 1014.3
20260903110300 66 76 1.0 3.0 0.04 0.13 0.13 96 1014.4
20260903105305 65 82 0.0 3.0 0.05 0.13 0.13 96 1014.3
20260903105256 65 84 1.0 2.0 0.04 0.13 0.13 96 1014.4
20260903104301 65 108 0.0 2.0 0.05 0.13 0.13 96 1014.2
20260903104257 65 82 0.0 3.0 0.05 0.13 0.13 96 1014.3
20260903103415 65 90 0.0 2.0 0.05 0.13 0.13 95 1014.1
20260903103300 65 107 0.0 2.0 0.05 0.13 0.13 95 1014.1
20260903103255 65 105 0.0 2.0 0.05 0.13 0.13 96 1014.1
20260903101756 65 90 0.0 1.0 0.05 0.13 0.13 95 1014.1
20260903101256 65 89 0.0 2.0 0.06 0.13 0.13 95 1014.1
20260903100756 65 97 0.0 2.0 0.04 0.11 0.11 95 1014.1
20260903100256 65 90 0.0 1.0 0.02 0.09 0.09 95 1014.3
20260903095757 65 90 0.0 2.0 0.03 0.09 0.09 95 1014.3
20260903095257 65 101 0.0 2.0 0.04 0.09 0.09 95 1014.3
20260903094801 64 98 0.0 1.0 0.04 0.08 0.08 95 1014.4
20260903094755 65 99 0.0 2.0 0.03 0.08 0.08 95 1014.4
20260903094413 64 97 0.0 1.0 0.06 0.08 0.08 95 1014.4
20260903093256 64 96 0.0 1.0 0.08 0.08 0.08 95 1014.6
20260903092802 64 94 0.0 1.0 0.08 0.08 0.08 94 1014.6
20260903092756 64 90 0.0 1.0 0.08 0.08 0.08 94 1014.7
20260903091756 64 96 0.0 1.0 0.08 0.08 0.08 94 1014.7
20260903091258 64 96 0.0 1.0 0.07 0.07 0.08 94 1014.6
20260903090755 64 96 0.0 1.0 0.07 0.07 0.07 94 1014.6
20260903090301 64 98 0.0 1.0 0.06 0.06 0.06 94 1014.6
20260903090255 64 98 0.0 1.0 0.07 0.07 0.07 94 1014.6
20260903085255 64 98 0.0 1.0 0.05 0.05 0.05 93 1014.9
20260903084755 64 96 0.0 1.0 0.05 0.05 0.05 93 1015.0
20260903084257 64 98 0.0 1.0 0.04 0.04 0.04 93 1015.1
20260903083757 64 97 0.0 1.0 0.02 0.02 0.02 93 1015.2
20260903083257 64 98 0.0 1.0 0.00 0.00 0.01 93 1015.2
20260903082756 64 97 0.0 1.0 0.00 0.00 0.00 93 1015.3
20260903082253 64 92 1.0 2.0 0.00 0.00 0.00 93 1015.3
20260903081753 64 90 0.0 2.0 0.00 0.00 0.00 93 1015.4
20260903081255 64 89 0.0 2.0 0.00 0.00 0.00 93 1015.4
20260903080751 64 90 1.0 2.0 0.00 0.00 0.00 93 1015.4
20260903080253 64 91 1.0 2.0 0.00 0.00 0.00 93 1015.4
20260903075753 64 90 0.0 2.0 0.00 0.00 0.00 93 1015.5
20260903075256 64 92 0.0 2.0 0.00 0.00 0.00 93 1015.6
20260903075252 64 90 0.0 2.0 0.00 0.00 0.00 93 1015.6
20260903074256 63 90 0.0 1.0 0.00 0.00 0.00 93 1015.7
20260903074251 63 91 0.0 2.0 0.00 0.00 0.00 93 1015.6
20260903073248 63 90 0.0 2.0 0.00 0.00 0.00 93 1015.8
20260903072748 63 89 0.0 2.0 0.00 0.00 0.00 93 1015.9
20260903072248 63 90 0.0 2.0 0.00 0.00 0.00 93 1016.0
20260903071749 63 89 0.0 1.0 0.00 0.00 0.00 93 1016.1
20260903071252 63 124 0.0 1.0 0.00 0.00 0.00 93 1016.3
20260903071247 63 90 0.0 1.0 0.00 0.00 0.00 93 1016.1
20260903070249 63 125 0.0 1.0 0.00 0.00 0.00 93 1016.5
20260903065748 63 121 0.0 1.0 0.00 0.00 0.00 93 1016.5
20260903065249 63 123 0.0 1.0 0.00 0.00 0.00 93 1016.5
20260903064748 63 126 0.0 1.0 0.00 0.00 0.00 93 1016.5
20260903064245 63 123 0.0 1.0 0.00 0.00 0.00 93 1016.5
20260903063745 63 123 0.0 1.0 0.00 0.00 0.00 93 1016.7
20260903063251 63 129 0.0 1.0 0.00 0.00 0.00 93 1016.8
20260903063246 63 126 0.0 1.0 0.00 0.00 0.00 93 1016.7
20260903062906 63 123 0.0 1.0 0.00 0.00 0.00 93 1016.9
20260903061745 62 126 0.0 1.0 0.00 0.00 0.00 93 1017.1
20260903061246 62 119 0.0 1.0 0.00 0.00 0.00 93 1017.2
20260903060744 62 121 0.0 2.0 0.00 0.00 0.00 93 1017.3
20260903060252 62 115 0.0 1.0 0.00 0.00 0.00 93 1017.6
20260903060246 63 114 0.0 2.0 0.00 0.00 0.00 93 1017.5
20260903055902 62 117 0.0 2.0 0.00 0.00 0.00 93 1017.8
20260903055243 62 121 0.0 0.0 0.00 0.00 0.00 93 1017.8
20260903054252 62 114 0.0 2.0 0.00 0.00 0.00 93 1017.8
20260903054244 62 111 0.0 2.0 0.00 0.00 0.00 93 1017.8
20260903053745 62 113 0.0 1.0 0.00 0.00 0.00 93 1017.8
20260903052743 62 112 0.0 2.0 0.00 0.00 0.00 93 1017.7
20260903052245 62 105 0.0 2.0 0.00 0.00 0.00 94 1017.8
20260903051741 62 111 0.0 2.0 0.00 0.00 0.00 94 1017.9
20260903051242 62 114 0.0 1.0 0.00 0.00 0.00 94 1018.3
20260903050740 62 112 0.0 1.0 0.00 0.00 0.00 94 1018.4
20260903050240 62 113 0.0 1.0 0.00 0.00 0.00 94 1018.4
20260903045744 62 112 0.0 1.0 0.00 0.00 0.00 94 1018.2
20260903045740 62 112 0.0 1.0 0.00 0.00 0.00 94 1018.3
20260903044740 62 115 0.0 2.0 0.00 0.00 0.00 94 1018.4
20260903044239 62 115 0.0 2.0 0.00 0.00 0.00 94 1018.3
20260903043739 62 113 0.0 2.0 0.00 0.00 0.00 94 1018.1
20260903043238 62 115 0.0 1.0 0.00 0.00 0.00 94 1018.3
20260903042744 62 115 0.0 1.0 0.00 0.00 0.00 94 1018.2
20260903042740 62 115 0.0 1.0 0.00 0.00 0.00 94 1018.3
20260903041740 62 119 0.0 1.0 0.00 0.00 0.00 94 1018.1
20260903041237 62 117 0.0 1.0 0.00 0.00 0.00 94 1018.0
20260903040736 62 116 0.0 1.0 0.00 0.00 0.00 94 1018.1
20260903040237 62 118 0.0 1.0 0.00 0.00 0.00 93 1018.1
20260903035744 62 127 0.0 1.0 0.00 0.00 0.00 93 1018.3
20260903035735 62 130 0.0 0.0 0.00 0.00 0.00 93 1018.1
20260903035236 62 129 0.0 0.0 0.00 0.00 0.00 93 1018.2
20260903034241 62 117 0.0 1.0 0.00 0.00 0.00 93 1018.6
20260903034236 62 123 0.0 1.0 0.00 0.00 0.00 93 1018.3
20260903033235 62 122 0.0 0.0 0.00 0.00 0.00 93 1018.7
20260903032736 62 123 0.0 0.0 0.00 0.00 0.00 93 1018.7
20260903032235 62 121 0.0 0.0 0.00 0.00 0.00 93 1018.6
20260903031734 62 122 0.0 0.0 0.00 0.00 0.00 92 1018.6
20260903031354 62 122 0.0 0.0 0.00 0.00 0.00 92 1019.0
20260903031241 62 123 0.0 0.0 0.00 0.00 0.00 92 1018.9
20260903031236 62 122 0.0 0.0 0.00 0.00 0.00 93 1018.7
20260903031012 62 122 0.0 0.0 0.00 0.00 0.00 92 1019.0
20260903025237 62 122 0.0 0.0 0.00 0.00 0.00 92 1019.0
20260903024735 62 122 0.0 0.0 0.00 0.00 0.00 92 1019.1
20260903024239 62 121 0.0 0.0 0.00 0.00 0.00 92 1019.0
20260903024236 62 121 0.0 0.0 0.00 0.00 0.00 92 1019.0
20260903023236 62 121 0.0 0.0 0.00 0.00 0.00 92 1019.1
20260903022735 62 120 0.0 0.0 0.00 0.00 0.00 92 1019.0
20260903022235 62 119 0.0 0.0 0.00 0.00 0.00 92 1018.9
20260903021735 62 119 0.0 0.0 0.00 0.00 0.00 92 1018.9
20260903021236 62 118 0.0 1.0 0.00 0.00 0.00 92 1018.9
20260903020734 63 116 0.0 1.0 0.00 0.00 0.00 92 1018.9
20260903020238 63 117 0.0 1.0 0.00 0.00 0.00 91 1018.9
20260903020233 63 117 0.0 1.0 0.00 0.00 0.00 92 1018.9
20260903015233 63 117 0.0 1.0 0.00 0.00 0.00 92 1018.9
20260903014731 63 117 0.0 1.0 0.00 0.00 0.00 92 1018.8
20260903014232 63 118 0.0 1.0 0.00 0.00 0.00 92 1019.0
20260903013737 63 117 0.0 1.0 0.00 0.00 0.00 91 1018.9
20260903013732 63 117 0.0 1.0 0.00 0.00 0.00 91 1019.1
20260903012732 63 122 0.0 1.0 0.00 0.00 0.00 90 1019.0
20260903012230 63 118 0.0 1.0 0.00 0.00 0.00 90 1018.9
20260903011731 63 119 0.0 1.0 0.00 0.00 0.00 90 1019.1
20260903011229 64 121 0.0 0.0 0.00 0.00 0.00 90 1019.3
20260903010734 64 121 0.0 0.0 0.00 0.00 0.00 90 1019.4
20260903010229 64 121 0.0 0.0 0.00 0.00 0.00 90 1019.3
20260903005729 64 121 0.0 0.0 0.00 0.00 0.00 89 1019.5
20260903005228 64 121 0.0 0.0 0.00 0.00 0.00 90 1019.4
20260903004729 64 120 0.0 0.0 0.00 0.00 0.00 89 1019.4
20260903004229 64 120 0.0 0.0 0.00 0.00 0.00 89 1019.3
20260903003735 64 118 0.0 1.0 0.00 0.00 0.00 88 1019.4
20260903003730 64 119 0.0 0.0 0.00 0.00 0.00 88 1019.3
20260903002729 65 115 0.0 1.0 0.00 0.00 0.00 88 1019.2
20260903002236 65 121 0.0 0.0 0.00 0.00 0.00 87 1019.6
20260903002229 65 114 0.0 1.0 0.00 0.00 0.00 87 1019.4
20260903001228 65 121 0.0 0.0 0.00 0.00 0.00 86 1019.7
20260903000728 65 121 0.0 0.0 0.00 0.00 0.00 86 1019.7
20260903000227 66 121 0.0 0.0 0.00 0.00 0.00 86 1019.9
20260902235728 66 120 0.0 0.0 0.00 0.00 0.00 85 1020.0
20260902235227 66 120 0.0 0.0 0.00 0.00 0.00 85 1020.0
20260902234728 66 119 0.0 1.0 0.00 0.00 0.00 85 1020.0
20260902234226 67 119 0.0 1.0 0.00 0.00 0.00 85 1020.0
20260902233732 67 116 0.0 1.0 0.00 0.00 0.00 84 1019.8
20260902233726 67 116 0.0 0.0 0.00 0.00 0.00 84 1019.9
20260902232727 67 116 0.0 1.0 0.00 0.00 0.00 84 1019.8
20260902232226 67 113 0.0 2.0 0.00 0.00 0.00 83 1019.8
20260902231727 67 113 0.0 2.0 0.00 0.00 0.00 83 1019.8
20260902231224 68 111 0.0 2.0 0.00 0.00 0.00 83 1019.9
20260902230725 68 113 1.0 2.0 0.00 0.00 0.00 82 1019.8
20260902230223 68 110 1.0 2.0 0.00 0.00 0.00 82 1019.9
20260902225724 68 112 1.0 2.0 0.00 0.00 0.00 81 1019.9
20260902225224 68 110 1.0 2.0 0.00 0.00 0.00 81 1020.2
20260902224724 69 111 1.0 2.0 0.00 0.00 0.00 80 1020.1
20260902224224 69 119 1.0 3.0 0.00 0.00 0.00 80 1020.1
20260902223724 69 119 1.0 3.0 0.00 0.00 0.00 79 1020.0
20260902223223 69 130 1.0 3.0 0.00 0.00 0.00 79 1020.0
20260902222724 69 117 1.0 3.0 0.00 0.00 0.00 78 1020.1
20260902222224 69 135 1.0 3.0 0.00 0.00 0.00 78 1020.1
20260902221724 69 113 2.0 5.0 0.00 0.00 0.00 77 1020.1
20260902221226 70 132 2.0 5.0 0.00 0.00 0.00 76 1020.0
20260902220725 70 117 2.0 5.0 0.00 0.00 0.00 76 1020.0
20260902220224 70 99 2.0 4.0 0.00 0.00 0.00 75 1020.0
20260902215729 71 127 2.0 6.0 0.00 0.00 0.00 74 1020.0
20260902215723 70 140 2.0 6.0 0.00 0.00 0.00 74 1020.0
20260902214724 71 101 2.0 6.0 0.00 0.00 0.00 74 1019.9
20260902214225 71 94 2.0 6.0 0.00 0.00 0.00 73 1019.8
20260902213721 71 138 1.0 6.0 0.00 0.00 0.00 74 1019.6
20260902213223 71 103 2.0 6.0 0.00 0.00 0.00 73 1019.5
20260902212726 71 98 2.0 6.0 0.00 0.01 0.00 71 1019.6
20260902212719 71 126 2.0 3.0 0.00 0.00 0.00 72 1019.4
20260902211725 71 128 1.0 6.0 0.00 0.01 0.00 71 1019.7
20260902211220 72 101 1.0 4.0 0.00 0.01 0.00 71 1019.9
20260902210718 72 100 1.0 4.0 0.00 0.01 0.00 70 1020.0
20260902210218 72 107 1.0 6.0 0.00 0.01 0.00 70 1020.1
20260902205718 72 101 1.0 6.0 0.00 0.01 0.00 67 1020.1
20260902205222 72 121 1.0 5.0 0.00 0.01 0.00 66 1020.1
20260902205217 72 116 1.0 6.0 0.00 0.01 0.00 68 1020.1
20260902204717 72 101 1.0 6.0 0.00 0.01 0.00 65 1020.1
20260902204335 72 98 1.0 3.0 0.00 0.01 0.00 66 1020.1
20260902203215 72 97 1.0 3.0 0.00 0.01 0.00 65 1020.0
20260902202715 72 115 1.0 4.0 0.00 0.01 0.00 65 1020.1
20260902202216 73 94 1.0 4.0 0.00 0.01 0.00 67 1020.1
20260902201717 73 92 1.0 3.0 0.00 0.01 0.00 63 1020.0
20260902201218 73 115 2.0 6.0 0.00 0.01 0.00 64 1020.0
20260902200716 73 107 2.0 7.0 0.00 0.01 0.00 61 1019.9
20260902200215 73 96 2.0 7.0 0.00 0.01 0.00 59 1020.0
20260902195716 73 130 1.0 4.0 0.00 0.01 0.00 65 1020.1
20260902195216 73 101 1.0 4.0 0.00 0.01 0.00 63 1020.2
20260902194722 74 95 1.0 4.0 0.00 0.01 0.00 63 1020.3
20260902194716 73 119 1.0 4.0 0.00 0.01 0.00 62 1020.3
20260902194335 74 106 1.0 4.0 0.00 0.01 0.00 63 1020.3
20260902193216 74 86 1.0 3.0 0.00 0.01 0.00 63 1020.4